DECAYED

OBJECT M, 43842 (Decayed)

Orbit data source: Space-Track

You're viewing an Uncataloged Satellite

Recently launched and/or uncataloged satellites may have evolving metadata. Metadata may include but not limited to: Owner, Maufacturer, Bus, Motor, and Mission.

OBJECT M, 43842 was a satellite in LEO that was launched on Fri, 07 Dec 2018 UTC via a CHANG ZHENG 2D launch vehicle from the Jiuquan Satellite Launch Center, China (JSC). Unknown objects in Earth's orbit typically refer to objects detected orbiting the Earth but have not yet been identified or cataloged. These objects could be anything from previously untracked satellites, spent rocket stages, debris from satellite collisions, or even natural meteoroids temporarily captured by Earth's gravity. This object's orbit decayed before it could be identified.

Not visible in the next 10 days
Identifier
43842, 2018-102M
Orbit
Decayed
Country
Flag of TBDTBD
Related business
None
Manufacturer
Jiutian
Mission
Decayed Commercial Imaging
Bus & Motor
CUBESAT 6U, Unknown motor
Mass
10 kg wet, 10 kg dry
Launch date (UTC)
2018-12-07 (7 years ago)
Launch vehicle
CHANG ZHENG 2D
Launch site
Jiuquan Satellite Launch Center, China (JSC)
Object type
Unknown
Shape & HBR
Box, 0.1 m
Radar Cross Section
0.035 m², Small (<0.1 m²)

Expand to show TLE details & history
Last TLE update: 1 year ago

TLE from 1 year ago
0 OBJECT M
1 43842U 18102M   24098.00985094  .05637639  24421-5  19269-2 0  9997
2 43842  97.3616 182.9771 0013616 274.1833  85.7903 16.25270801295500
Epoch: 2024-04-07T00:14Z
TLE epoch observation values (Epoch: 2024-04-07T00:14:11.121Z)
Latitude
0.00004°
Longitude
-16.33938°
Altitude
207.867 km
Speed
7.782 km/s
True Right ascension
12h 11m 54s
True Declination
0° 00' 00"
Sunlit
Object was in full shadow at epoch
Visualization orbit readout
Latitude
Unknown
Longitude
Unknown
Altitude
Unknown
Speed
Unknown
Apparent Right ascension
Unknown
Apparent Declination
Unknown
Sunlit
N/A
Visualization observer readout
Local Sidereal Time
12:58:29
Azimuth
Unknown
Elevation
Unknown
Doppler factor
Unknown
Orbital elements
Apogee altitude
211.065 km
Perigee altitude
193.145 km
Semi-major axis
6,580.242 km
Eccentricity
0.00136
Inclination
97.3616°
RAAN
182.9771°
Arg. of periapsis
274.1833°
True anomaly
85.94593°
Mean anomaly
85.7903°
Eccentric anomaly
85.86811°
Mean motion
4.06612 °/min
Orbital period
88.54 mins
BSTAR
0.0019269
Loading maneuver chart data...
Computing Atmospheric mass density...
Loading historical data...
Loading historical data...
Loading historical data...
Loading historical data...
Loading historical data...
Loading historical data...
Loading historical data...

Documentation

Showing up to 5 results
|